Location: Esterri de Aneo
(42.6284°N, 1.1223°E)
Time: 01:05:25
(UTC+00:00)

Cosmos 1825 Rocket - Pass Details

Date: 11 December 2025
Orbit: 597 x 624 km, 82.5° (Epoch: 17 January)

Event Time Altitude Azimuth Distance (km) Brightness Sun altitude
Rises 17:21:35 0° 356° (N) 2,878 6.8 -10.6°
Reaches altitude 10° 17:23:51 10° 0° (N) 1,965 5.9 -11.0°
Maximum altitude 17:28:08 55° 79° (E) 725 3.6 -11.8°
Drops below altitude 10° 17:32:20 10° 158° (SSE) 1,935 6.1 -12.5°
Sets 17:34:33 0° 163° (SSE) 2,830 7.0 -12.9°
